G4MDH Weather Reports


time (UTC)temp
C
wind
direction
speed
KPH
gust
KPH
rain 1hr
cm
rain 24hr
cm
rain mn
cm
humidity
%
barometer
mb
20260507215329 10 285 0.0 1.6 0.00 0.00 0.00 75 1015.8
20260507214811 10 277 0.0 1.6 0.00 0.00 0.00 75 1015.7
20260507214313 10 273 0.0 1.6 0.00 0.00 0.00 76 1015.7
20260507213815 10 272 0.0 1.6 0.00 0.00 0.00 76 1015.7
20260507213345 10 263 0.0 1.6 0.00 0.00 0.00 76 1015.6
20260507212851 10 248 0.0 3.2 0.00 0.00 0.00 76 1015.6
20260507212329 10 242 0.0 3.2 0.00 0.00 0.00 76 1015.6
20260507211836 10 226 0.0 1.6 0.00 0.00 0.00 76 1015.5
20260507211316 10 253 0.0 1.6 0.00 0.00 0.00 76 1015.5
20260507210815 10 157 0.0 0.0 0.00 0.00 0.00 76 1015.5
20260507210345 11 157 0.0 0.0 0.00 0.00 0.00 76 1015.4
20260507205831 11 158 0.0 0.0 0.00 0.00 0.00 76 1015.5
20260507205313 11 157 0.0 4.8 0.00 0.00 0.00 76 1015.5
20260507204815 11 156 0.0 4.8 0.00 0.00 0.00 76 1015.5
20260507204317 11 232 0.0 3.2 0.00 0.00 0.00 75 1015.4
20260507203825 11 115 0.0 0.0 0.00 0.00 0.00 75 1015.4
20260507203335 11 115 0.0 1.6 0.00 0.00 0.00 75 1015.4
20260507202836 11 105 0.0 1.6 0.00 0.00 0.00 74 1015.4
20260507202324 11 328 0.0 1.6 0.00 0.00 0.00 74 1015.3
20260507201831 11 328 0.0 0.0 0.00 0.00 0.00 74 1015.2
20260507201333 11 329 0.0 1.6 0.00 0.00 0.00 73 1015.2
20260507200841 11 328 0.0 1.6 0.00 0.00 0.00 73 1015.1
20260507200323 11 336 0.0 0.0 0.00 0.00 0.00 72 1015.0
20260507195830 12 336 0.0 0.0 0.00 0.00 0.00 72 1014.9
20260507195312 12 336 0.0 1.6 0.00 0.00 0.00 72 1014.9
20260507194834 12 336 0.0 1.6 0.00 0.00 0.00 72 1014.8
20260507194323 12 336 0.0 1.6 0.00 0.00 0.00 72 1014.7
20260507193825 12 336 0.0 1.6 0.00 0.00 0.00 71 1014.7
20260507193334 12 323 0.0 1.6 0.00 0.00 0.00 71 1014.7
20260507192836 12 25 0.0 1.6 0.00 0.00 0.00 71 1014.6
20260507192317 12 101 0.0 3.2 0.00 0.00 0.00 70 1014.7
20260507191826 12 338 0.0 3.2 0.00 0.00 0.00 69 1014.7
20260507191344 12 305 0.0 1.6 0.00 0.00 0.00 68 1014.6
20260507190833 12 319 0.0 4.8 0.00 0.00 0.00 67 1014.7
20260507190319 13 342 1.6 6.4 0.00 0.00 0.00 67 1014.6
20260507185844 13 274 1.6 6.4 0.00 0.00 0.00 66 1014.6
20260507185325 13 238 0.0 1.6 0.00 0.00 0.00 66 1014.6
20260507184811 13 239 0.0 1.6 0.00 0.00 0.00 66 1014.6
20260507184313 13 258 0.0 1.6 0.00 0.00 0.00 66 1014.5
20260507183822 13 255 0.0 1.6 0.00 0.00 0.00 66 1014.6
20260507183325 13 237 0.0 3.2 0.00 0.00 0.00 66 1014.5
20260507182832 13 273 1.6 3.2 0.00 0.00 0.00 65 1014.5
20260507182334 13 221 0.0 1.6 0.00 0.00 0.00 65 1014.5
20260507181822 13 255 0.0 1.6 0.00 0.00 0.00 65 1014.6
20260507180820 13 255 0.0 4.8 0.00 0.00 0.00 64 1014.5
20260507180323 13 257 1.6 4.8 0.00 0.00 0.00 64 1014.5
20260507175822 13 340 0.0 4.8 0.00 0.00 0.00 64 1014.4
20260507175330 13 332 1.6 4.8 0.00 0.00 0.00 63 1014.4
20260507174812 13 259 1.6 3.2 0.00 0.00 0.00 62 1014.4
20260507174313 14 246 0.0 3.2 0.00 0.00 0.00 62 1014.4
20260507173822 14 268 0.0 3.2 0.00 0.00 0.00 62 1014.4
20260507173325 14 254 0.0 1.6 0.00 0.00 0.00 62 1014.4
20260507172826 14 281 0.0 3.2 0.00 0.00 0.00 62 1014.5
20260507172334 14 330 0.0 3.2 0.00 0.00 0.00 62 1014.4
20260507171815 14 280 0.0 3.2 0.00 0.00 0.00 62 1014.3
20260507171345 14 261 1.6 4.8 0.00 0.00 0.00 62 1014.4
20260507170846 14 283 1.6 8.0 0.00 0.00 0.00 62 1014.3
20260507170335 14 264 1.6 8.0 0.00 0.00 0.00 62 1014.4
20260507165816 14 245 1.6 6.4 0.00 0.00 0.00 62 1014.4
20260507165319 14 298 1.6 3.2 0.00 0.00 0.00 63 1014.4
20260507164829 14 285 0.0 4.8 0.00 0.00 0.00 63 1014.5
20260507164349 14 328 1.6 6.4 0.00 0.00 0.00 62 1014.5
20260507163837 14 248 3.2 6.4 0.00 0.00 0.00 62 1014.5
20260507163321 14 269 3.2 6.4 0.00 0.00 0.00 62 1014.5
20260507162820 14 291 1.6 6.4 0.00 0.00 0.00 62 1014.5
20260507162329 14 282 1.6 6.4 0.00 0.00 0.00 62 1014.5
20260507161810 14 351 1.6 8.0 0.00 0.00 0.00 63 1014.4
20260507161313 14 300 1.6 9.7 0.00 0.00 0.00 62 1014.5
20260507160842 14 250 3.2 9.7 0.00 0.00 0.00 62 1014.5
20260507160323 14 236 3.2 9.7 0.00 0.00 0.00 61 1014.5
20260507155851 14 292 3.2 4.8 0.00 0.00 0.00 61 1014.5
20260507155312 14 248 1.6 4.8 0.00 0.00 0.00 61 1014.5
20260507154841 14 245 0.0 4.8 0.00 0.00 0.00 61 1014.5
20260507154328 14 294 3.2 8.0 0.00 0.00 0.00 60 1014.5
20260507153811 14 301 3.2 9.7 0.00 0.00 0.00 60 1014.4
20260507153321 14 268 1.6 9.7 0.00 0.00 0.00 59 1014.5
20260507152822 14 263 1.6 8.0 0.00 0.00 0.00 59 1014.5
20260507152324 14 298 1.6 8.0 0.00 0.00 0.00 58 1014.5
20260507151832 14 277 1.6 8.0 0.00 0.00 0.00 57 1014.6
20260507151314 14 252 1.6 8.0 0.00 0.00 0.00 57 1014.5
20260507150842 14 347 1.6 4.8 0.00 0.00 0.00 56 1014.5
20260507150344 14 265 1.6 4.8 0.00 0.00 0.00 55 1014.6
20260507145841 15 273 1.6 4.8 0.00 0.00 0.00 54 1014.6
20260507145344 15 276 1.6 4.8 0.00 0.00 0.00 54 1014.7
20260507144843 15 324 1.6 4.8 0.00 0.00 0.00 54 1014.7
20260507144353 15 278 0.0 3.2 0.00 0.00 0.00 53 1014.6
20260507143826 15 302 0.0 4.8 0.00 0.00 0.00 54 1014.7
20260507143312 15 285 1.6 4.8 0.00 0.00 0.00 54 1014.7
20260507142820 15 284 1.6 4.8 0.00 0.00 0.00 54 1014.7
20260507142322 15 241 1.6 4.8 0.00 0.00 0.00 54 1014.7
20260507141824 15 248 1.6 8.0 0.00 0.00 0.00 53 1014.8
20260507141332 15 269 1.6 8.0 0.00 0.00 0.00 53 1014.9
20260507140813 15 281 1.6 4.8 0.00 0.00 0.00 53 1014.9
20260507140315 15 115 1.6 8.0 0.00 0.00 0.00 53 1014.9
20260507135822 15 270 3.2 8.0 0.00 0.00 0.00 52 1014.9
20260507135324 15 210 1.6 4.8 0.00 0.00 0.00 51 1014.9
20260507134829 15 269 0.0 4.8 0.00 0.00 0.00 52 1014.9